Regional Weather Roundup
Issued by NWS

Home | Current Version | Previous Version | Text Only | Print | Product List | Glossary Off
Versions: 1 2 3 4 5 6 7 8 9 10 11 12 13 14 15 16 17 18 19 20 21 22 23 24 25 26 27 28 29 30 31 32 33 34 35 36 37 38 39 40 41 42 43 44 45 46 47 48 49 50

376
ASUS43 KDMX 251206
RWRIA

WEATHER ROUNDUP FOR IOWA
NATIONAL WEATHER SERVICE DES MOINES IA
700 AM CDT SUN JUN 25 2017

NOTE: "FAIR" INDICATES FEW OR NO CLOUDS BELOW 12,000 FEET WITH NO
SIGNIFICANT WEATHER AND/OR OBSTRUCTIONS TO VISIBILITY.

* - THESE STATIONS ARE NOT NWS STATIONS...THUS NOT UNDER NWS
QUALITY CONTROL.  THEY ALSO DO NOT REPORT WEATHER SUCH
AS PRECIPITATION OR FOG.

IAZ001>003-012>014-020>022-031>034-043>046-251300-
   NORTHWEST IOWA

CITY           SKY/WX    TMP DP  RH WIND       PRES   REMARKS
CARROLL *      MOSUNNY   52  45  76 W10       30.26R
CHEROKEE *     MOSUNNY   50  46  83 NW9       30.27R
DENISON *      SUNNY     52  45  76 W6        30.29S
LE MARS *      SUNNY     52  45  76 NW9       30.30R
ORANGE CITY *  SUNNY     48  46  93 NW7       30.28R
SHELDON *      SUNNY     52  45  76 W9        30.26R
SIOUX CITY     SUNNY     51  44  77 NW7       30.31R
6HR MIN TEMP:  47; 6HR MAX TEMP:  54;

SPENCER        SUNNY     51  46  83 NW14      30.25R
6HR MIN TEMP:  46; 6HR MAX TEMP:  51;

STORM LAKE *   CLOUDY    50  45  81 W13       30.26R
$$

IAZ055>058-069>071-079>083-090>094-251300-
   SOUTHWEST IOWA

CITY           SKY/WX    TMP DP  RH WIND       PRES   REMARKS
ATLANTIC *     MOSUNNY   54  45  71 NW8       30.27S
AUDUBON *      SUNNY     54  45  71 NW5       30.27S
CLARINDA *     SUNNY     55  46  71 N5        30.30R
COUNCIL BLFS * CLOUDY    55  45  67 NW6       30.29S
CRESTON *      SUNNY     50  46  87 W5        30.27R
HARLAN  *      SUNNY     50  46  87 NW5       30.31S
LAMONI         MOSUNNY   54  47  77 W6        30.25R
6HR MIN TEMP:  51; 6HR MAX TEMP:  60;

RED OAK *      MOSUNNY   54  48  82 CALM      30.28S
SHENANDOAH *   MOSUNNY   55  48  76 CALM      30.30R
$$

IAZ047>049-059>061-072>074-084-251300-
   CENTRAL IOWA

CITY           SKY/WX    TMP DP  RH WIND       PRES   REMARKS
AMES           MOSUNNY   54  46  74 NW10      30.22R
6HR MIN TEMP:  49; 6HR MAX TEMP:  54;

ANKENY *       MOSUNNY   55  46  71 NW9       30.24R
BOONE *        SUNNY     52  45  76 W10       30.22R
CHARITON *     MOSUNNY   52  46  82 W8        30.23R
DES MOINES     MOSUNNY   55  45  68 NW9       30.23R
6HR MIN TEMP:  51; 6HR MAX TEMP:  60;

GRINNELL*      CLOUDY    51  46  82 W3        30.22R
KNOXVILLE *    MOSUNNY   52  46  82 W7        30.21R
MARSHALLTOWN   PTSUNNY   52  48  86 W6        30.19R
6HR MIN TEMP:  48; 6HR MAX TEMP:  52;

NEWTON *       MOSUNNY   50  46  87 W6        30.22R
PELLA *        MOSUNNY   53  46  76 W6        30.23R
PERRY *          N/A     52  46  82 W8        30.24R
$$

IAZ004>006-015-016-023>025-035-036-251300-
   NORTH CENTRAL IOWA

CITY           SKY/WX    TMP DP  RH WIND       PRES   REMARKS
ALGONA *       PTSUNNY   52  48  87 W8        30.22R
CLARION *        N/A     52  48  87 W10       30.20S
ESTHERVILLE    MOSUNNY   51  44  77 NW21G28   30.22R
6HR MIN TEMP:  46; 6HR MAX TEMP:  51;

FORT DODGE *   MOSUNNY   52  45  76 W6        30.24R
MASON CITY     PTSUNNY   51  46  83 W10       30.19R
6HR MIN TEMP:  48; 6HR MAX TEMP:  52;

FOREST CITY *  CLOUDY    50  43  76 W12       30.18S
WEBSTER CITY * MOSUNNY   52  46  82 W9        30.20R
IOWA FALLS *     N/A     51  47  85 W8        30.21R
$$

IAZ007>011-017>019-026>030-037>042-050>054-066-251300-
   NORTHEAST IOWA

CITY           SKY/WX    TMP DP  RH WIND       PRES   REMARKS
CEDAR RAPIDS   SUNNY     52  49  89 W9        30.17R
6HR MIN TEMP:  45; 6HR MAX TEMP:  52;

CHARLES CITY * SUNNY     52  50  93 W12       30.17R
CLINTON *      SUNNY     55  51  86 W9        30.15R
DECORAH *      SUNNY     50  48  93 SW3       30.12S
DUBUQUE        SUNNY     52  47  83 W8        30.13S
6HR MIN TEMP:  49; 6HR MAX TEMP:  53;

MONTICELLO *   SUNNY     54  48  82 W7        30.14S
OELWEIN *      MOSUNNY   52  48  87 W13       30.17R
WATERLOO       MOSUNNY   53  46  77 W8        30.17R
6HR MIN TEMP:  50; 6HR MAX TEMP:  53;

$$

IAZ064-065-067-068-078-251300-
   EAST CENTRAL IOWA

CITY           SKY/WX    TMP DP  RH WIND       PRES   REMARKS
DAVENPORT      MOSUNNY   54  49  83 W8        30.15S
6HR MIN TEMP:  52; 6HR MAX TEMP:  56;

IOWA CITY      MOSUNNY   55  46  71 W7        30.19R
6HR MIN TEMP:  50; 6HR MAX TEMP:  57;

MT. PLEASANT * MOSUNNY   56  44  64 W8        30.19R
MUSCATINE *    SUNNY     57  46  67 W9        30.17R
QUAD CITIES    SUNNY     58  53  84 W3        30.15R
6HR MIN TEMP:  52; 6HR MAX TEMP:  58;

$$

IAZ062-063-075>077-085>089-095>099-251300-
   SOUTHEAST IOWA

CITY           SKY/WX    TMP DP  RH WIND       PRES   REMARKS
BURLINGTON     MOSUNNY   57  47  69 NW7       30.18R
6HR MIN TEMP:  53; 6HR MAX TEMP:  61;

FAIRFIELD *    MOSUNNY   54  45  71 W8        30.19R
FORT MADISON * SUNNY     57  48  72 W3        30.19R
KEOKUK *       SUNNY     55  52  88 W6        30.19R
OSKALOOSA *      N/A     50  47  88 W7        30.22R
CENTERVILLE *    N/A     55  48  76 CALM      30.24R
OTTUMWA        MOSUNNY   52  48  86 W8        30.21R
6HR MIN TEMP:  48; 6HR MAX TEMP:  53;

WASHINGTON *   MOSUNNY   55  46  71 W10       30.20R
$$

ABBREVIATIONS USED IN REMARKS
   TC - TEMPERATURES IN CELSIUS
  WCI - WIND CHILL INDEX
   HX - HEAT INDEX
  VSB - VISIBILITY
$$





USA.gov is the U.S. government's official web portal to all federal, state and local government web resources and services.